Regional Weather Roundup
Issued by NWS

Home | Current Version | Previous Version | Graphics & Text | Print | Product List | Glossary On
Versions: 1 2 3 4 5 6 7 8 9 10 11 12 13 14 15 16 17 18 19 20 21 22 23 24 25 26 27 28 29 30 31 32 33 34 35 36 37 38 39 40 41 42 43 44 45 46 47 48 49 50
000
ASUS44 KMEG 271110
RWRTN
TENNESSEE HOURLY STATE WEATHER ROUNDUP
NATIONAL WEATHER SERVICE MEMPHIS TN
600 AM CDT THU JUL 27 2017

TNZ002-004-019-021-049-052-054-088>092-271200-
WEST TENNESSEE

CITY           SKY/WX    TMP DP  RH WIND       PRES   REMARKS
MEMPHIS INTL   PTCLDY    78  74  87 S8        30.01S
NWS MEMPHIS      N/A     77 N/A N/A MISG        N/A
JACKSON        CLOUDY    76  73  91 S8        30.00S
SOMERVILLE       N/A     77  72  83 S6        30.00S
COVINGTON      CLEAR     77  73  88 CALM      30.00R
UNION CITY     CLEAR     75  73  94 S6        29.98R
BOLIVAR        CLEAR     75  70  83 CALM      30.01S
PARIS          CLEAR     75  73  94 SW5       29.99S
HUNTINGDON     CLEAR     77  73  88 SW3       29.99S
LEXINGTON      CLEAR     72  72 100 CALM      30.01S FOG
SAVANNAH       PTCLDY    72  72 100 CALM      30.02R
$$

TNZ008-025-027-028-033-062-065-066-271200-
NORTH MIDDLE TENNESSEE

CITY           SKY/WX    TMP DP  RH WIND       PRES   REMARKS
NASHVILLE      CLOUDY    78  72  81 CALM      30.03R
PORTLAND         N/A     75  73  94 S3        30.01S
CLARKSVILLE    CLOUDY    78  73  84 SW5       30.00S
SMYRNA         CLOUDY    75  73  93 CALM      30.04R
COOKEVILLE       N/A     72  72 100 CALM      30.06R FOG
GALLATIN       CLOUDY    75  73  94 CALM      30.04R FOG
CROSSVILLE     PTCLDY    71  69  93 CALM      30.11R
$$

TNZ061-075-076-078-094-096-097-271200-
SOUTH MIDDLE TENNESSEE

CITY           SKY/WX    TMP DP  RH WIND       PRES   REMARKS
FAYETTEVILLE   PTCLDY    75  73  94 CALM      30.05R
TULLAHOMA      CLEAR     73  72  94 CALM      30.07S
WINCHESTER     CLEAR     73  73 100 CALM      30.07R
MCMINNVILLE    CLEAR     75  75 100 CALM      30.06R
COLUMBIA       CLEAR     75  75 100 CALM      30.01S
SHELBYVILLE    CLEAR     73  73 100 CALM      30.04S FOG
$$

TNZ017-018-042-046-047-271200-
NORTHEAST TENNESSEE

CITY           SKY/WX    TMP DP  RH WIND       PRES   REMARKS
TRI CITIES     MOCLDY    70  68  93 N3        30.09S
ELIZABETHTON   PTCLDY    70  66  88 CALM      30.10S
$$

TNZ012-013-036-069-073-074-271200-
CENTRAL EAST TENNESSEE

CITY           SKY/WX    TMP DP  RH WIND       PRES   REMARKS
KNOXVILLE      CLOUDY    76  72  87 W5        30.06R
OAK RIDGE      MOCLDY    77  72  84 CALM      30.07S
GATLINBURG     PTCLDY    72  68  88 E3        30.06R
MORRISTOWN     MOCLDY    73  72  94 S3        30.07R
JACKSBORO      PTCLDY    72  72 100 CALM      30.09S FOG
$$

TNZ083-085-099-271200-
SOUTHEAST TENNESSEE

CITY           SKY/WX    TMP DP  RH WIND       PRES   REMARKS
CHATTANOOGA    MOCLDY    75  71  87 CALM      30.07R
DAYTON         PTSUNNY   75  75 100 VRB5      30.05S FOG
$$

SKY/WX REPORTED AS FAIR MEANS FEW OR NO CLOUDS BELOW
12 THOUSAND FEET.




USA.gov is the U.S. government's official web portal to all federal, state and local government web resources and services.